This is the latest recevied weather packets stored in our database for station/object EA1GGY-1. If no packets are shown the sender has not sent any weather packets the latest 10 day(s).
| Time | Temp. | Humidity | Pressure | Rain* | Wind** | Luminosity | Snow |
|---|---|---|---|---|---|---|---|
| 1777831179 | 11.11° C | 79% | 1007.4 hPa | - | - | - | - |
| 1777830578 | 11.67° C | 74% | 1007 hPa | - | - | - | - |
| 1777829979 | 11.67° C | 73% | 1006.9 hPa | - | - | - | - |
| 1777829377 | 11.67° C | 72% | 1007 hPa | - | - | - | - |
| 1777828777 | 11.67° C | 72% | 1007 hPa | - | - | - | - |
| 1777828175 | 11.67° C | 73% | 1007 hPa | - | - | - | - |
| 1777827574 | 11.11° C | 75% | 1007 hPa | - | - | - | - |
| 1777826974 | 11.67° C | 76% | 1007.1 hPa | - | - | - | - |
| 1777826374 | 11.67° C | 75% | 1007.2 hPa | - | - | - | - |
| 1777825772 | 12.22° C | 71% | 1007.1 hPa | - | - | - | - |
| 1777825172 | 11.67° C | 71% | 1007.2 hPa | - | - | - | - |
| 1777824571 | 11.67° C | 75% | 1007.1 hPa | - | - | - | - |
| 1777823970 | 11.11° C | 76% | 1007.3 hPa | - | - | - | - |
| 1777823369 | 10.56° C | 77% | 1007.4 hPa | - | - | - | - |
| 1777822769 | 11.11° C | 76% | 1007.3 hPa | - | - | - | - |
| 1777822167 | 11.11° C | 75% | 1007.4 hPa | - | - | - | - |
| 1777821568 | 11.11° C | 79% | 1007.5 hPa | - | - | - | - |
| 1777820967 | 11.67° C | 76% | 1007.4 hPa | - | - | - | - |
| 1777820364 | 11.11° C | 77% | 1007.4 hPa | - | - | - | - |
| 1777819764 | 11.11° C | 76% | 1007.1 hPa | - | - | - | - |
| 1777819162 | 11.11° C | 76% | 1007.1 hPa | - | - | - | - |
| 1777818562 | 11.67° C | 76% | 1007.2 hPa | - | - | - | - |
| 1777817961 | 11.67° C | 72% | 1007 hPa | - | - | - | - |
| 1777817360 | 13.33° C | 67% | 1006.6 hPa | - | - | - | - |
| 1777816759 | 13.89° C | 65% | 1006.5 hPa | - | - | - | - |
* Rain since midnight (hover to see other rain measurements)
** Current wind speed in m/s (hover to see current wind gust speed)